Location: Crescent
(42.8242°N, 73.7329°W)
Time: 15:53:51
(UTC+00:00)

A-11 Canister half - Pass Details

Date: 16 February 2026
Orbit: 1525 x 1683 km, 47.3° (Epoch: 9 March)

Event Time Altitude Azimuth Distance (km) Brightness Sun altitude
Rises 00:04:47 0° 266° (W) 4,691 13.2 -18.6°
Reaches altitude 10° 00:07:52 10° 269° (W) 3,699 12.3 -19.1°
Maximum altitude 00:17:09 69° 353° (N) 1,614 9.1 -20.8°
Enters shadow 00:22:26 29° 69° (ENE) 2,500 9.6 -21.8°
